{"data":{"norad_id":89379,"epoch":"2026-05-22T08:18:31.446720Z","epoch_age_seconds":300279,"freshness":"STALE","line1":"1 89379U          26142.34619730  .00004306  00000+0  54211-2 0  9991","line2":"2 89379 100.4706 174.6866 0049955  94.8705 265.8141 13.64027873602667","mean_motion":13.64027873,"eccentricity":0.0049955,"inclination_deg":100.4706,"raan_deg":174.6866,"arg_perigee_deg":94.8705,"mean_anomaly_deg":265.8141,"bstar":0.0054211,"rev_number":60266,"period_min":105.56969021703,"perigee_km":984.1270514827,"apogee_km":1058.0527273348,"semimajor_km":7399.2268894087,"source":"CELESTRAK","updated_at":"2026-05-25T13:38:11.781174Z"}}